TimeCST,TemperatureF,Dew PointF,Humidity,Sea Level PressureIn,VisibilityMPH,Wind Direction,Wind SpeedMPH,Gust SpeedMPH,PrecipitationIn,Events,Conditions,WindDirDegrees,DateUTC
12:15 AM,33.3,30.9,91,29.76,7.0,South,5.8,-,N/A,,Overcast,190,2013-02-14 06:15:00
12:35 AM,33.1,30.9,92,29.76,7.0,SSW,5.8,-,N/A,,Overcast,200,2013-02-14 06:35:00
12:55 AM,33.8,30.2,87,29.75,10.0,SSW,6.9,-,N/A,,Overcast,200,2013-02-14 06:55:00
1:15 AM,33.3,30.2,89,29.75,10.0,SSW,5.8,-,N/A,,Overcast,200,2013-02-14 07:15:00
1:35 AM,32.7,30.0,90,29.74,10.0,South,4.6,-,N/A,,Mostly Cloudy,180,2013-02-14 07:35:00
1:55 AM,33.1,30.4,90,29.74,10.0,SSW,4.6,-,N/A,,Mostly Cloudy,200,2013-02-14 07:55:00
2:15 AM,34.2,31.1,89,29.74,10.0,SSW,6.9,-,N/A,,Overcast,200,2013-02-14 08:15:00
2:35 AM,34.7,30.9,86,29.73,10.0,South,4.6,-,N/A,,Overcast,190,2013-02-14 08:35:00
2:55 AM,35.6,30.2,81,29.72,10.0,SSW,8.1,-,N/A,,Overcast,200,2013-02-14 08:55:00
3:15 AM,35.2,30.7,84,29.71,10.0,SSW,6.9,-,N/A,,Overcast,200,2013-02-14 09:15:00
3:35 AM,35.6,30.7,82,29.71,10.0,SSW,9.2,-,N/A,,Overcast,200,2013-02-14 09:35:00
3:55 AM,35.4,30.6,82,29.71,10.0,SSW,10.4,-,N/A,,Overcast,200,2013-02-14 09:55:00
4:15 AM,34.9,30.7,85,29.71,10.0,SSW,9.2,-,N/A,,Overcast,200,2013-02-14 10:15:00
4:35 AM,35.6,30.2,81,29.70,10.0,South,15.0,-,N/A,,Light Drizzle,190,2013-02-14 10:35:00
4:55 AM,35.6,32.0,87,29.68,10.0,South,12.7,-,N/A,,Overcast,180,2013-02-14 10:55:00
5:15 AM,35.6,30.9,83,29.67,10.0,South,10.4,-,N/A,,Overcast,180,2013-02-14 11:15:00
5:35 AM,35.6,30.9,83,29.67,10.0,South,10.4,-,N/A,,Overcast,190,2013-02-14 11:35:00
5:55 AM,35.8,30.9,82,29.68,10.0,SSW,13.8,-,N/A,,Overcast,200,2013-02-14 11:55:00
6:15 AM,35.6,31.1,84,29.68,10.0,SSW,16.1,19.6,N/A,,Overcast,200,2013-02-14 12:15:00
6:35 AM,35.2,31.1,85,29.68,10.0,SSW,12.7,-,N/A,,Overcast,210,2013-02-14 12:35:00
6:55 AM,35.2,31.1,85,29.68,10.0,SSW,12.7,-,N/A,,Overcast,210,2013-02-14 12:55:00
7:15 AM,35.2,31.1,85,29.68,10.0,SSW,12.7,-,N/A,,Mostly Cloudy,210,2013-02-14 13:15:00
7:35 AM,35.6,31.6,85,29.68,10.0,SW,15.0,-,N/A,,Scattered Clouds,220,2013-02-14 13:35:00
7:55 AM,36.7,32.0,83,29.69,10.0,SW,13.8,-,N/A,,Clear,220,2013-02-14 13:55:00
8:15 AM,36.7,31.6,82,29.69,10.0,SW,15.0,21.9,N/A,,Clear,230,2013-02-14 14:15:00
8:35 AM,37.2,31.8,81,29.69,10.0,SW,13.8,-,N/A,,Clear,230,2013-02-14 14:35:00
8:55 AM,37.0,31.8,81,29.70,10.0,WSW,11.5,21.9,N/A,,Clear,240,2013-02-14 14:55:00
9:15 AM,37.6,31.8,80,29.70,10.0,SW,13.8,-,N/A,,Clear,230,2013-02-14 15:15:00
9:35 AM,39.4,32.0,75,29.70,10.0,WSW,17.3,24.2,N/A,,Clear,240,2013-02-14 15:35:00
9:55 AM,41.0,32.0,70,29.70,10.0,WSW,20.7,27.6,N/A,,Mostly Cloudy,250,2013-02-14 15:55:00
10:15 AM,39.4,31.1,72,29.71,10.0,WSW,19.6,26.5,N/A,,Overcast,250,2013-02-14 16:15:00
10:35 AM,38.7,30.7,73,29.71,10.0,West,18.4,27.6,N/A,,Overcast,260,2013-02-14 16:35:00
10:55 AM,37.4,30.2,75,29.72,10.0,West,23.0,28.8,N/A,,Overcast,260,2013-02-14 16:55:00
11:15 AM,37.9,29.3,71,29.72,10.0,West,19.6,32.2,N/A,,Overcast,260,2013-02-14 17:15:00
11:35 AM,38.7,29.1,69,29.72,10.0,WSW,23.0,29.9,N/A,,Overcast,250,2013-02-14 17:35:00
11:55 AM,39.4,29.3,67,29.73,10.0,WSW,20.7,28.8,N/A,,Overcast,250,2013-02-14 17:55:00
12:15 PM,38.5,29.3,70,29.73,10.0,West,23.0,28.8,N/A,,Overcast,270,2013-02-14 18:15:00
12:35 PM,38.3,29.3,70,29.74,10.0,West,17.3,27.6,N/A,,Overcast,260,2013-02-14 18:35:00
12:55 PM,38.3,29.7,71,29.74,10.0,WSW,15.0,24.2,N/A,,Overcast,250,2013-02-14 18:55:00
1:15 PM,37.9,30.2,74,29.74,10.0,West,19.6,23.0,N/A,,Overcast,260,2013-02-14 19:15:00
1:35 PM,37.9,30.0,73,29.75,10.0,West,17.3,26.5,N/A,,Overcast,270,2013-02-14 19:35:00
1:55 PM,37.4,30.2,75,29.75,10.0,West,19.6,29.9,N/A,,Overcast,280,2013-02-14 19:55:00
2:15 PM,38.1,29.7,72,29.76,10.0,West,19.6,25.3,N/A,,Overcast,280,2013-02-14 20:15:00
2:35 PM,38.3,29.3,70,29.78,10.0,West,21.9,28.8,N/A,,Overcast,270,2013-02-14 20:35:00
2:55 PM,38.3,28.4,68,29.80,10.0,West,21.9,29.9,N/A,,Overcast,280,2013-02-14 20:55:00
3:15 PM,38.3,27.9,66,29.81,10.0,West,17.3,26.5,N/A,,Overcast,280,2013-02-14 21:15:00
3:35 PM,38.5,27.1,64,29.83,10.0,West,21.9,27.6,N/A,,Overcast,280,2013-02-14 21:35:00
3:55 PM,38.3,27.3,65,29.84,10.0,WNW,10.4,23.0,N/A,,Overcast,290,2013-02-14 21:55:00
4:15 PM,37.9,26.1,62,29.84,10.0,West,18.4,24.2,N/A,,Mostly Cloudy,280,2013-02-14 22:15:00
4:35 PM,38.3,26.2,62,29.86,10.0,West,15.0,24.2,N/A,,Mostly Cloudy,280,2013-02-14 22:35:00
4:55 PM,37.9,25.7,61,29.87,10.0,West,11.5,19.6,N/A,,Overcast,280,2013-02-14 22:55:00
5:15 PM,37.8,23.9,57,29.88,10.0,WNW,8.1,21.9,N/A,,Overcast,300,2013-02-14 23:15:00
5:35 PM,37.4,23.7,58,29.89,10.0,WNW,17.3,23.0,N/A,,Overcast,300,2013-02-14 23:35:00
5:55 PM,36.9,22.1,55,29.91,10.0,West,16.1,21.9,N/A,,Overcast,280,2013-02-14 23:55:00
6:15 PM,36.5,22.1,56,29.91,10.0,WNW,12.7,18.4,N/A,,Overcast,300,2013-02-15 00:15:00
6:35 PM,36.1,22.1,57,29.93,10.0,WNW,10.4,-,N/A,,Overcast,300,2013-02-15 00:35:00
6:55 PM,35.8,20.8,55,29.94,10.0,NW,15.0,23.0,N/A,,Overcast,310,2013-02-15 00:55:00
7:15 PM,35.6,20.3,54,29.94,10.0,NW,9.2,16.1,N/A,,Overcast,310,2013-02-15 01:15:00
7:35 PM,35.6,20.3,54,29.95,10.0,WNW,8.1,-,N/A,,Overcast,300,2013-02-15 01:35:00
7:55 PM,35.1,20.8,56,29.95,10.0,WNW,11.5,17.3,N/A,,Overcast,300,2013-02-15 01:55:00
8:15 PM,35.1,20.3,55,29.95,10.0,WNW,11.5,17.3,N/A,,Overcast,290,2013-02-15 02:15:00
8:35 PM,34.7,20.5,56,29.96,10.0,WNW,5.8,16.1,N/A,,Overcast,290,2013-02-15 02:35:00
8:55 PM,34.2,20.3,57,29.96,10.0,WNW,4.6,-,N/A,,Overcast,300,2013-02-15 02:55:00
9:15 PM,33.3,20.1,59,29.96,10.0,WNW,4.6,-,N/A,,Mostly Cloudy,290,2013-02-15 03:15:00
9:35 PM,32.7,20.3,60,29.96,10.0,WNW,3.5,-,N/A,,Mostly Cloudy,290,2013-02-15 03:35:00
9:55 PM,32.5,20.7,62,29.96,10.0,West,3.5,-,N/A,,Overcast,280,2013-02-15 03:55:00
10:15 PM,31.6,20.8,64,29.97,10.0,WSW,4.6,-,N/A,,Overcast,250,2013-02-15 04:15:00
10:35 PM,29.8,21.4,71,29.97,10.0,Calm,Calm,-,N/A,,Mostly Cloudy,0,2013-02-15 04:35:00
10:55 PM,31.5,22.1,68,29.97,10.0,WSW,3.5,-,N/A,,Overcast,240,2013-02-15 04:55:00
11:15 PM,31.5,23.0,71,29.97,10.0,West,4.6,-,N/A,,Overcast,260,2013-02-15 05:15:00
11:35 PM,32.0,23.7,71,29.98,10.0,West,5.8,-,N/A,,Overcast,270,2013-02-15 05:35:00
11:55 PM,32.0,23.4,70,29.98,10.0,West,5.8,-,N/A,,Overcast,280,2013-02-15 05:55:00